GW1913 Weather Reports


time (UTC)temp
F
wind
direction
speed
knots
gust
knots
rain 1hr
in
rain 24hr
in
rain mn
in
humidity
%
barometer
mb
20260906224549 71 18 2.6 9.6 0.00 0.08 0.00 42 1027.6
20260906223056 72 16 1.7 7.0 0.00 0.08 0.00 41 1027.6
20260906221554 72 5 1.7 6.1 0.00 0.08 0.00 40 1027.7
20260906220045 71 352 1.7 5.2 0.00 0.08 0.00 41 1027.6
20260906214603 71 348 2.6 7.0 0.00 0.08 0.00 40 1027.9
20260906213058 72 98 0.9 9.6 0.00 0.08 0.00 38 1028.0
20260906211549 73 0 1.7 3.5 0.00 0.08 0.00 36 1028.0
20260906210047 72 42 1.7 11.3 0.00 0.08 0.00 37 1028.1
20260906204555 73 40 1.7 9.6 0.00 0.08 0.00 36 1028.1
20260906203050 73 85 1.7 8.7 0.00 0.08 0.00 35 1028.1
20260906201550 74 64 5.2 11.3 0.00 0.08 0.00 33 1028.2
20260906200055 79 329 0.9 11.3 0.00 0.08 0.00 28 1028.0
20260906194550 76 0 2.6 8.7 0.00 0.08 0.00 23 1028.0
20260906193050 76 303 2.6 10.4 0.00 0.08 0.00 20 1028.1
20260906191558 76 360 3.5 13.9 0.00 0.08 0.00 18 1028.6
20260906190054 78 268 1.7 7.8 0.00 0.08 0.00 17 1028.5
20260906184557 77 190 2.6 7.0 0.00 0.08 0.00 19 1028.9
20260906183047 76 339 2.6 7.0 0.00 0.08 0.00 23 1029.2
20260906181553 77 269 1.7 6.1 0.00 0.08 0.00 23 1029.6
20260906180111 75 334 2.6 7.0 0.00 0.08 0.00 27 1030.0
20260906174550 74 247 1.7 6.1 0.00 0.08 0.00 28 1030.3
20260906173102 74 271 0.0 7.0 0.00 0.08 0.00 29 1030.5
20260906171557 73 236 1.7 4.3 0.00 0.08 0.00 29 1030.7
20260906170056 71 259 1.7 7.0 0.00 0.08 0.00 33 1030.9
20260906164547 71 320 0.9 1.7 0.00 0.08 0.00 34 1031.0
20260906163119 69 0 0.9 3.5 0.00 0.08 0.00 40 1031.0
20260906161553 69 360 0.0 3.5 0.00 0.08 0.00 43 1031.1
20260906160053 67 38 1.7 5.2 0.00 0.08 0.00 45 1031.0
20260906154546 64 281 0.0 2.6 0.00 0.08 0.00 49 1031.2
20260906153054 62 69 0.9 3.5 0.00 0.08 0.00 58 1030.9
20260906151553 59 210 0.0 3.5 0.00 0.08 0.00 63 1031.2
20260906150057 59 0 0.0 3.5 0.00 0.08 0.00 64 1031.2
20260906144554 57 292 0.0 3.5 0.00 0.08 0.00 70 1031.3
20260906143053 56 0 0.0 7.0 0.00 0.08 0.00 70 1031.3
20260906141551 55 0 1.7 6.1 0.00 0.08 0.00 70 1031.4
20260906134552 52 234 1.7 10.4 0.00 0.08 0.00 75 1031.2
20260906133115 50 253 1.7 6.1 0.00 0.08 0.00 80 1031.1
20260906131608 49 0 0.9 8.7 0.00 0.08 0.00 80 1031.3
20260906130046 49 273 1.7 5.2 0.00 0.08 0.00 81 1031.1
20260906124550 49 225 1.7 5.2 0.00 0.08 0.00 80 1030.9
20260906123052 49 219 1.7 7.8 0.00 0.08 0.00 80 1030.9
20260906121550 49 240 1.7 7.8 0.00 0.08 0.00 80 1030.9
20260906120054 49 0 0.9 7.8 0.00 0.08 0.00 81 1030.9
20260906114557 49 0 0.9 6.1 0.00 0.08 0.00 81 1031.1
20260906113053 49 226 1.7 11.3 0.00 0.08 0.00 82 1031.1
20260906111545 49 244 0.9 7.0 0.00 0.08 0.00 83 1031.0
20260906110051 49 235 0.9 6.1 0.00 0.08 0.00 83 1031.2
20260906104547 49 228 0.0 5.2 0.00 0.08 0.00 82 1031.1
20260906103044 50 281 0.0 7.0 0.00 0.08 0.00 80 1031.1
20260906101555 50 245 2.6 8.7 0.00 0.08 0.00 81 1031.1
20260906100049 49 322 0.9 6.1 0.00 0.08 0.00 82 1031.0
20260906094546 49 214 0.9 6.1 0.00 0.08 0.00 82 1031.2
20260906093053 49 0 1.7 6.1 0.00 0.08 0.00 83 1031.2
20260906091552 50 190 0.9 10.4 0.00 0.08 0.00 82 1031.4
20260906090056 49 239 1.7 5.2 0.00 0.08 0.00 84 1031.4
20260906084552 49 274 0.0 4.3 0.00 0.08 0.00 84 1031.4
20260906083053 49 215 1.7 7.8 0.00 0.08 0.00 85 1031.5
20260906081552 49 0 1.7 6.1 0.00 0.08 0.00 85 1031.6
20260906080057 50 267 1.7 5.2 0.00 0.08 0.00 84 1031.6
20260906074552 50 219 0.9 4.3 0.00 0.08 0.00 85 1031.7
20260906073044 50 273 0.9 4.3 0.00 0.08 0.00 85 1031.7
20260906071554 49 0 0.9 4.3 0.00 0.08 0.00 86 1031.9
20260906070059 50 243 1.7 7.0 0.00 0.08 0.00 85 1031.9
20260906064553 50 198 0.9 6.1 0.00 0.08 0.00 86 1031.9
20260906063053 51 160 2.6 7.0 0.00 0.08 0.00 84 1031.9
20260906061555 50 190 0.9 4.3 0.00 0.08 0.00 86 1032.1
20260906060105 50 0 0.9 5.2 0.00 0.08 0.00 86 1032.1
20260906054555 51 238 1.7 5.2 0.00 0.08 0.08 86 1032.2
20260906053048 51 263 0.0 5.2 0.00 0.08 0.08 86 1032.4
20260906051558 52 217 0.9 5.2 0.01 0.08 0.08 86 1032.4
20260906050056 52 188 0.9 5.2 0.01 0.08 0.08 86 1032.6
20260906044549 51 186 1.7 6.1 0.01 0.08 0.08 88 1032.8
20260906043057 52 188 2.6 7.8 0.01 0.08 0.08 86 1033.0
20260906041550 52 0 1.7 7.0 0.00 0.07 0.07 85 1033.1
20260906040055 52 190 1.7 6.1 0.00 0.07 0.07 86 1033.1
20260906034548 51 0 0.9 3.5 0.03 0.07 0.07 89 1032.9
20260906033045 51 0 0.0 4.3 0.03 0.07 0.07 89 1033.2
20260906031552 52 171 0.0 6.1 0.03 0.07 0.07 88 1033.0
20260906030055 53 217 2.6 10.4 0.03 0.07 0.07 81 1033.2
20260906024547 56 279 3.5 8.7 0.00 0.04 0.04 69 1032.3
20260906023050 53 183 0.9 1.7 0.00 0.04 0.04 80 1031.2
20260906021557 52 140 0.9 2.6 0.00 0.04 0.04 86 1031.2
20260906020047 51 132 1.7 3.5 0.00 0.04 0.04 88 1030.7
20260906014603 51 0 0.9 2.6 0.00 0.04 0.04 89 1030.7
20260906013051 51 138 0.9 2.6 0.00 0.04 0.04 89 1030.5
20260906011603 52 138 0.9 2.6 0.04 0.04 0.04 89 1030.8
20260906010047 53 138 0.9 2.6 0.04 0.04 0.04 89 1030.7
20260906004544 54 137 0.9 3.5 0.04 0.04 0.04 87 1030.7
20260906003055 57 128 1.7 5.2 0.04 0.04 0.04 84 1030.7
20260906001600 67 0 0.0 2.6 0.00 0.00 0.00 40 1030.4
20260906000046 67 158 0.0 5.2 0.00 0.00 0.00 37 1030.2
20260905234555 68 0 0.0 3.5 0.00 0.00 0.00 36 1030.1
20260905233106 69 0 0.0 7.8 0.00 0.00 0.00 35 1030.0
20260905231557 68 0 0.0 3.5 0.00 0.00 0.00 35 1029.9
20260905230048 69 44 1.7 9.6 0.00 0.00 0.00 34 1029.9